TimeCST,TemperatureF,Dew PointF,Humidity,Sea Level PressureIn,VisibilityMPH,Wind Direction,Wind SpeedMPH,Gust SpeedMPH,PrecipitationIn,Events,Conditions,WindDirDegrees,DateUTC
12:15 AM,13.6,9.1,82,30.25,10.0,SW,5.8,-,N/A,,Clear,220,2013-01-04 06:15:00
12:35 AM,11.7,7.2,82,30.24,10.0,SW,5.8,-,N/A,,Clear,220,2013-01-04 06:35:00
12:55 AM,11.1,6.8,83,30.23,10.0,SW,9.2,-,N/A,,Clear,220,2013-01-04 06:55:00
1:15 AM,11.3,7.0,83,30.24,10.0,SSW,9.2,-,N/A,,Clear,210,2013-01-04 07:15:00
1:35 AM,11.1,7.0,83,30.24,10.0,SW,10.4,-,N/A,,Clear,220,2013-01-04 07:35:00
1:55 AM,11.1,7.0,83,30.24,10.0,SSW,11.5,-,N/A,,Clear,210,2013-01-04 07:55:00
2:35 AM,11.1,7.2,84,30.24,10.0,SW,10.4,17.3,N/A,,Clear,220,2013-01-04 08:35:00
2:55 AM,11.1,7.2,84,30.23,10.0,SW,12.7,17.3,N/A,,Clear,220,2013-01-04 08:55:00
3:15 AM,11.1,7.2,84,30.23,10.0,SW,12.7,-,N/A,,Clear,220,2013-01-04 09:15:00
5:55 AM,14.0,10.4,86,30.19,10.0,SSW,16.1,19.6,N/A,,Clear,210,2013-01-04 11:55:00
6:15 AM,13.6,10.0,86,30.19,10.0,SW,11.5,-,N/A,,Clear,220,2013-01-04 12:15:00
6:35 AM,13.6,10.0,86,30.19,10.0,SSW,15.0,-,N/A,,Clear,210,2013-01-04 12:35:00
6:55 AM,13.6,10.0,86,30.19,10.0,SSW,15.0,21.9,N/A,,Clear,210,2013-01-04 12:55:00
7:15 AM,13.6,10.0,86,30.19,10.0,SW,12.7,17.3,N/A,,Clear,220,2013-01-04 13:15:00
7:35 AM,14.0,10.4,86,30.18,10.0,SW,13.8,18.4,N/A,,Clear,220,2013-01-04 13:35:00
7:55 AM,16.2,12.2,84,30.18,10.0,SW,13.8,18.4,N/A,,Clear,220,2013-01-04 13:55:00
8:15 AM,16.2,12.2,84,30.19,10.0,SW,16.1,-,N/A,,Clear,220,2013-01-04 14:15:00
8:35 AM,16.2,12.2,84,30.19,10.0,SW,12.7,19.6,N/A,,Clear,220,2013-01-04 14:35:00
8:55 AM,17.1,12.9,84,30.19,10.0,SW,11.5,17.3,N/A,,Clear,230,2013-01-04 14:55:00
9:15 AM,18.5,14.0,83,30.19,10.0,SW,12.7,18.4,N/A,,Clear,220,2013-01-04 15:15:00
9:35 AM,18.5,14.0,83,30.19,10.0,SW,12.7,18.4,N/A,,Clear,220,2013-01-04 15:35:00
9:55 AM,19.8,15.3,83,30.19,10.0,SW,15.0,20.7,N/A,,Clear,220,2013-01-04 15:55:00
10:15 AM,21.2,16.5,82,30.18,10.0,SW,16.1,20.7,N/A,,Clear,220,2013-01-04 16:15:00
10:35 AM,22.3,17.1,80,30.18,10.0,SW,17.3,-,N/A,,Clear,220,2013-01-04 16:35:00
10:55 AM,23.7,18.5,80,30.18,10.0,SW,17.3,24.2,N/A,,Clear,220,2013-01-04 16:55:00
11:15 AM,24.3,18.7,79,30.18,10.0,SW,16.1,21.9,N/A,,Clear,220,2013-01-04 17:15:00
11:35 AM,25.3,19.2,78,30.17,10.0,SW,16.1,24.2,N/A,,Clear,220,2013-01-04 17:35:00
11:55 AM,26.2,19.8,76,30.16,10.0,SW,16.1,-,N/A,,Clear,230,2013-01-04 17:55:00
12:15 PM,27.3,20.3,75,30.15,10.0,SW,17.3,23.0,N/A,,Clear,220,2013-01-04 18:15:00
12:35 PM,28.8,21.4,74,30.14,10.0,SW,16.1,25.3,N/A,,Clear,230,2013-01-04 18:35:00
12:55 PM,28.8,21.6,74,30.13,10.0,SW,15.0,21.9,N/A,,Clear,220,2013-01-04 18:55:00
1:15 PM,29.1,21.2,72,30.13,10.0,SW,16.1,25.3,N/A,,Clear,220,2013-01-04 19:15:00
1:35 PM,30.2,22.6,73,30.13,10.0,SW,16.1,23.0,N/A,,Clear,230,2013-01-04 19:35:00
1:55 PM,30.6,23.0,74,30.14,10.0,SW,12.7,20.7,N/A,,Clear,230,2013-01-04 19:55:00
2:15 PM,31.5,23.5,73,30.14,10.0,SW,12.7,20.7,N/A,,Clear,230,2013-01-04 20:15:00
2:35 PM,31.5,23.2,71,30.14,10.0,SW,13.8,21.9,N/A,,Clear,230,2013-01-04 20:35:00
2:55 PM,31.5,23.0,71,30.15,10.0,SW,13.8,18.4,N/A,,Clear,230,2013-01-04 20:55:00
3:15 PM,31.5,23.0,71,30.16,10.0,SW,11.5,-,N/A,,Clear,230,2013-01-04 21:15:00
3:35 PM,31.5,23.0,71,30.16,10.0,SW,10.4,-,N/A,,Clear,230,2013-01-04 21:35:00
3:55 PM,31.5,23.0,71,30.16,10.0,SW,12.7,-,N/A,,Clear,220,2013-01-04 21:55:00
4:15 PM,31.5,23.4,72,30.17,10.0,SSW,10.4,-,N/A,,Clear,210,2013-01-04 22:15:00
4:35 PM,32.0,23.0,69,30.17,10.0,SSW,11.5,-,N/A,,Clear,210,2013-01-04 22:35:00
4:55 PM,31.5,23.4,72,30.19,10.0,SW,11.5,-,N/A,,Clear,230,2013-01-04 22:55:00
5:15 PM,30.2,23.0,75,30.19,10.0,SW,12.7,-,N/A,,Clear,230,2013-01-04 23:15:00
5:35 PM,28.8,21.4,74,30.19,10.0,SW,9.2,-,N/A,,Clear,230,2013-01-04 23:35:00
5:55 PM,28.8,21.7,75,30.19,10.0,SW,9.2,-,N/A,,Clear,230,2013-01-04 23:55:00
6:15 PM,28.8,22.1,76,30.20,10.0,SW,9.2,-,N/A,,Clear,220,2013-01-05 00:15:00
6:35 PM,27.9,21.4,77,30.20,10.0,SW,8.1,-,N/A,,Clear,220,2013-01-05 00:35:00
6:55 PM,27.0,21.0,78,30.21,10.0,SSW,8.1,-,N/A,,Clear,210,2013-01-05 00:55:00
7:15 PM,27.3,21.6,79,30.21,10.0,SW,6.9,-,N/A,,Clear,220,2013-01-05 01:15:00
7:35 PM,26.2,21.0,81,30.21,10.0,SSW,6.9,-,N/A,,Clear,210,2013-01-05 01:35:00
7:55 PM,25.5,21.0,83,30.21,10.0,SSW,8.1,-,N/A,,Clear,210,2013-01-05 01:55:00
8:15 PM,25.7,21.4,84,30.21,10.0,SSW,6.9,-,N/A,,Clear,210,2013-01-05 02:15:00
8:35 PM,26.4,22.1,84,30.21,10.0,SW,8.1,-,N/A,,Clear,220,2013-01-05 02:35:00
8:55 PM,26.8,22.1,83,30.21,10.0,SSW,6.9,-,N/A,,Clear,210,2013-01-05 02:55:00
9:15 PM,26.2,21.7,83,30.21,10.0,SW,6.9,-,N/A,,Clear,220,2013-01-05 03:15:00
9:35 PM,26.2,22.1,84,30.21,10.0,SSW,6.9,-,N/A,,Clear,210,2013-01-05 03:35:00
9:55 PM,24.8,21.0,86,30.21,10.0,SSW,6.9,-,N/A,,Clear,210,2013-01-05 03:55:00
10:15 PM,24.8,21.0,86,30.21,10.0,SW,3.5,-,N/A,,Clear,220,2013-01-05 04:15:00
10:35 PM,23.9,20.1,85,30.21,10.0,Calm,Calm,-,N/A,,Clear,0,2013-01-05 04:35:00
10:55 PM,23.7,20.3,87,30.21,7.0,Calm,Calm,-,N/A,,Clear,0,2013-01-05 04:55:00
11:15 PM,21.6,18.5,88,30.20,7.0,Calm,Calm,-,N/A,,Clear,0,2013-01-05 05:15:00
11:35 PM,18.7,16.0,89,30.19,7.0,Calm,Calm,-,N/A,,Clear,0,2013-01-05 05:35:00
11:55 PM,19.8,17.2,90,30.18,7.0,Calm,Calm,-,N/A,,Clear,0,2013-01-05 05:55:00